Weather History for Ohio State University, OH

Change the Weather History Date:

Tuesday, June 25, 2013

  Actual Average Record
Temperature  
Mean Temperature 80 °F -  
Max Temperature 91 °F 81 °F 93 °F (1997)
Min Temperature 70 °F 61 °F 55 °F (2001)
Cooling Degree Days 15    
Growing Degree Days 30 (Base 50)    
Moisture  
Dew Point 69 °F    
Average Humidity 67    
Maximum Humidity 90    
Minimum Humidity 50    
Precipitation  
Precipitation 0.00 in - - ()
Sea Level Pressure  
Sea Level Pressure 29.97 in    
Wind  
Wind Speed 9 mph (SW)    
Max Wind Speed 17 mph    
Max Gust Speed 29 mph    
Visibility 9 miles    
Events Thunderstorm    
Averages and records for this station are not official NWS values.
T = Trace of Precipitation, MM = Missing Value Source: NWS Daily Summary

Daily Weather History Graph

Daily Weather History Graph

Search for Another Location

Airport:

Trip Planner

Search our weather history database for the weather conditions in past years. The results will help you decide how hot, cold, wet, or windy it might be!

Date:

Astronomy

Jun. 25, 2013 Rise Set
Actual Time 6:04 AM EDT 9:05 PM EDT
Civil Twilight 5:31 AM EDT 9:38 PM EDT
Nautical Twilight 4:49 AM EDT 10:20 PM EDT
Astronomical Twilight 4:01 AM EDT 11:08 PM EDT
Moon 10:50 PM EDT (6/25) 8:43 AM EDT (6/25)
Length of Visible Light 16h 06m
Length of Day
15h 00m
Waning Gibbous, 93% of the Moon is Illuminated
Jun 25
Waning Gibbous
Jun 30
Last Quarter
Jul 8
New
Jul 15
First Quarter
Jul 22
Full

Hourly Weather History & Observations

Time (EDT) Temp. Heat Index Dew Point Humidity Pressure Visibility Wind Dir Wind Speed Gust Speed Precip Events Conditions
12:53 AM 73.0 °F - 68.0 °F 84% 30.06 in 9.0 mi SW 4.6 mph - N/A   Scattered Clouds
1:53 AM 73.0 °F - 68.0 °F 84% 30.01 in 9.0 mi South 10.4 mph - N/A   Clear
2:53 AM 72.0 °F - 68.0 °F 87% 30.00 in 8.0 mi SSW 9.2 mph - N/A   Clear
3:53 AM 71.1 °F - 66.9 °F 87% 29.99 in 7.0 mi South 6.9 mph - N/A   Clear
4:53 AM 70.0 °F - 66.9 °F 90% 30.02 in 7.0 mi SW 8.1 mph - N/A   Clear
5:53 AM 70.0 °F - 66.9 °F 90% 30.03 in 5.0 mi SW 8.1 mph - N/A   Clear
6:53 AM 70.0 °F - 66.9 °F 90% 30.04 in 4.0 mi WSW 6.9 mph - N/A   Clear
7:53 AM 73.0 °F - 66.9 °F 81% 30.04 in 5.0 mi WSW 9.2 mph - N/A   Haze
8:53 AM 77.0 °F - 66.9 °F 71% 30.04 in 9.0 mi SW 8.1 mph - N/A   Clear
9:53 AM 81.0 °F 83.3 °F 66.9 °F 62% 30.03 in 10.0 mi WSW 8.1 mph - N/A   Clear
10:53 AM 84.0 °F 87.8 °F 69.1 °F 61% 30.02 in 10.0 mi SW 9.2 mph - N/A   Clear
11:53 AM 86.0 °F 90.7 °F 70.0 °F 59% 30.01 in 10.0 mi West 6.9 mph 17.3 mph N/A   Partly Cloudy
12:53 PM 89.1 °F 94.1 °F 70.0 °F 53% 30.01 in 10.0 mi WSW 9.2 mph 21.9 mph N/A   Partly Cloudy
1:53 PM 90.0 °F 94.5 °F 69.1 °F 50% 29.97 in 10.0 mi SSW 16.1 mph 23.0 mph N/A   Partly Cloudy
2:53 PM 88.0 °F 92.9 °F 70.0 °F 55% 29.96 in 10.0 mi WSW 6.9 mph - N/A   Partly Cloudy
3:33 PM 89.6 °F 94.7 °F 69.8 °F 52% 29.96 in 10.0 mi WSW 16.1 mph - N/A Thunderstorm Thunderstorm
3:53 PM 89.1 °F 93.7 °F 69.1 °F 52% 29.93 in 10.0 mi SW 12.7 mph 21.9 mph 0.00 in Thunderstorm Mostly Cloudy
4:32 PM 89.6 °F 94.7 °F 69.8 °F 52% 29.95 in 10.0 mi WSW 16.1 mph 28.8 mph N/A   Partly Cloudy
4:53 PM 88.0 °F 92.1 °F 69.1 °F 53% 29.91 in 10.0 mi WSW 15.0 mph 19.6 mph N/A   Partly Cloudy
5:53 PM 86.0 °F 91.5 °F 71.1 °F 61% 29.89 in 10.0 mi WSW 9.2 mph - N/A   Partly Cloudy
6:53 PM 89.1 °F 93.7 °F 69.1 °F 52% 29.87 in 10.0 mi WSW 17.3 mph 26.5 mph N/A   Scattered Clouds
7:53 PM 88.0 °F 91.4 °F 68.0 °F 51% 29.88 in 10.0 mi SW 12.7 mph 19.6 mph N/A   Scattered Clouds
8:53 PM 84.9 °F 88.2 °F 68.0 °F 57% 29.88 in 10.0 mi SW 6.9 mph - N/A   Partly Cloudy
9:53 PM 84.0 °F 87.8 °F 69.1 °F 61% 29.88 in 10.0 mi SW 8.1 mph - N/A   Partly Cloudy
10:53 PM 82.0 °F 85.9 °F 70.0 °F 67% 29.89 in 10.0 mi SW 6.9 mph - N/A   Partly Cloudy
11:53 PM 82.0 °F 85.9 °F 70.0 °F 67% 29.89 in 10.0 mi SW 10.4 mph - N/A   Mostly Cloudy